Glencoe, MN

2:15 AM CST on December 13, 2019 (GMT -0600)
Glencoe Municipal

Weather History for KGYL - October, 2019

Change the Weather History Date:

Monday, October 7, 2019

  Actual Average (WUND) Record (WUND)
Temperature  
Mean Temperature 55 °F -  
Max Temperature 68 °F - - (-1)
Min Temperature 42 °F - - (-1)
Degree Days  
Heating Degree Days 10    
Growing Degree Days 5 (Base 50)    
Moisture  
Dew Point 39 °F    
Average Humidity 52    
Maximum Humidity 87    
Minimum Humidity 30    
Precipitation  
Precipitation 0.00 in - - ()
Sea Level Pressure  
Sea Level Pressure 30.12 in    
Wind  
Wind Speed 5 mph (WSW)    
Max Wind Speed 9 mph    
Max Gust Speed 17 mph    
Visibility 10 miles    
Events      
Averages and records for this station are not official NWS values.
T = Trace of Precipitation, MM = Missing Value Source: NWS Daily Summary

Daily Weather History Graph

Daily Weather History Graph

Search for Another Location

Airport or City:

Astronomy

Oct. 07, 2019 Rise Set
Actual Time 7:21 AM CDT 6:46 PM CDT
Civil Twilight 6:52 AM CDT 7:15 PM CDT
Nautical Twilight 6:18 AM CDT 7:49 PM CDT
Astronomical Twilight 5:44 AM CDT 8:23 PM CDT
Moon 4:25 PM CDT (10/7) 12:56 AM CDT (10/7)
Length of Visible Light 12h 23m
Length of Day
11h 24m
Waxing Gibbous, 69% of the Moon is Illuminated
Oct 7
Waxing Gibbous
Oct 13
Full
Oct 21
Last Quarter
Oct 27
New
Nov 4
First Quarter

Hourly Weather History & Observations

Time (CDT) Temp. Windchill Dew Point Humidity Pressure Visibility Wind Dir Wind Speed Gust Speed Precip Events Conditions
12:59 AM 53.6 °F - 41.0 °F 62% 30.06 in 10.0 mi West 4.6 mph - N/A   Clear
1:59 AM 51.8 °F - 41.0 °F 67% 30.07 in 10.0 mi West 6.9 mph - N/A   Clear
2:59 AM 48.2 °F - 41.0 °F 76% 30.09 in 10.0 mi WSW 3.5 mph - N/A   Clear
3:59 AM 44.6 °F 43.1 °F 41.0 °F 87% 30.10 in 10.0 mi WSW 3.5 mph - N/A   Clear
4:59 AM 44.6 °F 42.2 °F 41.0 °F 87% 30.12 in 10.0 mi West 4.6 mph - N/A   Clear
5:59 AM 42.8 °F 40.1 °F 39.2 °F 87% 30.13 in 10.0 mi WSW 4.6 mph - N/A   Clear
6:59 AM 42.8 °F 41.1 °F 39.2 °F 87% 30.14 in 10.0 mi WSW 3.5 mph - N/A   Clear
7:59 AM 42.8 °F 40.1 °F 39.2 °F 87% 30.15 in 10.0 mi SW 4.6 mph - N/A   Clear
8:59 AM 46.4 °F 44.3 °F 41.0 °F 81% 30.16 in 10.0 mi WSW 4.6 mph - N/A   Clear
9:59 AM 51.8 °F - 41.0 °F 67% 30.17 in 10.0 mi WSW 3.5 mph - N/A   Clear
10:59 AM 57.2 °F - 41.0 °F 55% 30.17 in 10.0 mi West 6.9 mph - N/A   Clear
11:59 AM 60.8 °F - 41.0 °F 48% 30.17 in 10.0 mi WSW 4.6 mph - N/A   Clear
12:12 PM - - - N/A% 30.17 in 10.0 mi West 5.8 mph - N/A   Clear
12:20 PM - - - N/A% 30.17 in 10.0 mi SW 5.8 mph - N/A   Clear
12:35 PM 62.2 °F - 39.6 °F 43% 30.17 in 10.0 mi West 5.8 mph - N/A   Clear
12:36 PM 62.2 °F - 39.7 °F 44% 30.17 in 10.0 mi WSW 6.9 mph - N/A   Clear
12:55 PM 63.5 °F - 39.6 °F 41% 30.17 in 10.0 mi West 6.9 mph - N/A   Clear
1:15 PM 63.9 °F - 37.9 °F 38% 30.15 in 10.0 mi West 9.2 mph - N/A   Clear
1:35 PM 65.1 °F - 37.2 °F 36% 30.15 in 10.0 mi West 9.2 mph - N/A   Clear
1:40 PM 64.6 °F - 37.0 °F 36% 30.14 in 10.0 mi SW 6.9 mph - N/A   Clear
1:57 PM 65.3 °F - 37.0 °F 35% 30.14 in 10.0 mi WSW 5.8 mph - N/A   Clear
2:33 PM - - - N/A% 30.12 in 10.0 mi West 9.2 mph 17.3 mph N/A   Clear
2:35 PM - - - N/A% 30.12 in 10.0 mi West 8.1 mph 17.3 mph N/A   Clear
2:36 PM 66.2 °F - 36.0 °F 33% 30.12 in 10.0 mi West 8.1 mph 17.3 mph N/A   Clear
2:58 PM 66.7 °F - 35.4 °F 31% 30.11 in 10.0 mi WSW 9.2 mph 16.1 mph N/A   Clear
3:16 PM 67.3 °F - 35.1 °F 30% 30.11 in 10.0 mi West 6.9 mph - N/A   Clear
3:35 PM 67.5 °F - 36.1 °F 32% 30.11 in 10.0 mi WSW 6.9 mph - N/A   Clear
3:58 PM 67.3 °F - 34.5 °F 30% 30.10 in 10.0 mi SW 5.8 mph - N/A   Clear
4:15 PM 67.3 °F - 35.2 °F 31% 30.10 in 10.0 mi SW 6.9 mph - N/A   Clear
4:35 PM 67.3 °F - 34.7 °F 30% 30.09 in 10.0 mi SSW 4.6 mph - N/A   Clear
4:57 PM 67.3 °F - 35.8 °F 31% 30.09 in 10.0 mi SSW 5.8 mph - N/A   Clear
4:59 PM 68.0 °F - 35.6 °F 30% 30.09 in 10.0 mi SW 4.6 mph - N/A   Clear
5:19 PM 67.3 °F - 35.8 °F 31% 30.08 in 10.0 mi SSW 5.8 mph - N/A   Clear
5:59 PM 66.2 °F - 35.6 °F 32% 30.07 in 10.0 mi Calm Calm - N/A   Clear
6:59 PM 60.8 °F - 39.2 °F 45% 30.07 in 10.0 mi Calm Calm - N/A   Clear
7:59 PM 53.6 °F - 41.0 °F 62% 30.07 in 10.0 mi SE 3.5 mph - N/A   Clear
8:59 PM 51.8 °F - 41.0 °F 67% 30.07 in 10.0 mi SE 3.5 mph - N/A   Clear
9:59 PM 51.8 °F - 41.0 °F 67% 30.06 in 10.0 mi SE 4.6 mph - N/A   Clear
10:59 PM 51.8 °F - 41.0 °F 67% 30.04 in 10.0 mi SSE 4.6 mph - N/A   Clear
11:59 PM 50.0 °F - 41.0 °F 71% 30.03 in 10.0 mi SE 4.6 mph - N/A   Clear